Simultaneous Nadir Overpasses (SNOs) Predictions

Prediction of SNOs between GOES-16 and AQUA Satellite Orbit:

Table of predicted SNOs for the next 14.0 days since TLE Epoch: 9/10/2022
Index Date Time (GOES-16) GOES-16 Lat,Lon AQUA Lat,Lon Distance(km) Time Diff (sec)
1 09/11/2022 06:28:35 0.04, -75.20 -0.53, -72.45 311.23 80
2 09/11/2022 18:49:52 -0.03, -75.20 -0.52, -77.62 274.70 80
3 09/13/2022 18:39:49 -0.04, -75.21 0.10, -74.52 78.71 80
4 09/15/2022 18:27:07 -0.04, -75.23 0.80, -71.44 432.56 80
5 09/16/2022 06:48:13 0.03, -75.24 0.32, -76.55 149.16 80
6 09/18/2022 06:32:51 0.03, -75.26 -0.33, -73.45 205.11 80
7 09/18/2022 18:54:06 -0.02, -75.27 -0.75, -78.61 380.51 80
8 09/20/2022 18:41:23 -0.01, -75.30 -0.08, -75.52 25.64 80
9 09/22/2022 18:31:20 -0.01, -75.33 0.61, -72.43 330.14 80
10 09/23/2022 06:52:28 0.00, -75.34 0.45, -77.56 250.89 80
